Miscellaneous Local Product
Issued by NWS Hastings, NE

Home | Current Version | Previous Version | Text Only | Print | Product List | Glossary Off
Versions: 1 2 3 4 5 6 7 8 9 10 11 12 13 14 15 16 17 18 19 20 21 22 23 24 25 26 27 28 29 30 31 32 33 34 35 36 37 38 39 40 41 42 43 44 45 46 47 48 49 50

000
AXUS43 KGID 251302
MISGRI

GID CWA HOURLY WEATHER ROUNDUP
NATIONAL WEATHER SERVICE HASTINGS NE
800 AM CDT SUN JUN 25 2017

NOTE: "FAIR" INDICATES FEW OR NO CLOUDS BELOW 12,000 FEET WITH NO
SIGNIFICANT WEATHER AND/OR OBSTRUCTIONS TO VISIBILITY.

...SOUTH CENTRAL NEBRASKA...

CITY           SKY/WX    TMP DP  RH WIND       PRES   REMARKS
GRAND ISLAND   CLOUDY    56  43  61 CALM      30.37R
HASTINGS       CLOUDY    56  44  64 NE5       30.37R
KEARNEY        CLOUDY    54  43  66 CALM      30.38R
ORD            MOSUNNY   54  41  61 NW5       30.35S
YORK           CLOUDY    55  45  67 CALM      30.35R
AURORA         MOSUNNY   56  46  67 CALM      30.36R
LEXINGTON      CLOUDY    57  45  64 CALM      30.38R
HOLDREGE       LGT RAIN  55  44  68 NE9       30.37R
HEBRON         CLOUDY    57  48  72 NW5       30.35R

...NEBRASKA PANHANDLE...

CITY           SKY/WX    TMP DP  RH WIND       PRES   REMARKS
CHADRON        CLOUDY    57  38  48 S3        30.35S
ALLIANCE       CLOUDY    53  42  66 E3        30.36S
SCOTTSBLUFF    CLOUDY    57  39  51 S6        30.37F
SIDNEY         PTSUNNY   54  35  48 E10       30.38F

...WESTERN AND NORTH CENTRAL NEBRASKA...

CITY           SKY/WX    TMP DP  RH WIND       PRES   REMARKS
VALENTINE      PTSUNNY   53  36  52 CALM      30.37S
AINSWORTH      SUNNY     54  42  62 W3        30.37S
ONEILL         SUNNY     53  45  72 W8        30.36R
BROKEN BOW     CLOUDY    56  43  61 N3        30.36F
IMPERIAL       CLOUDY    56  36  47 E10       30.37R
NORTH PLATTE   CLOUDY    57  44  62 E3        30.37S
MCCOOK         CLOUDY    55  44  66 NE10      30.37R

...EASTERN NEBRASKA...

CITY           SKY/WX    TMP DP  RH WIND       PRES   REMARKS
NORFOLK        SUNNY     53  44  71 NW3       30.32S
SO SIOUX CITY  SUNNY     56  47  71 NW12      30.31S
TEKAMAH        SUNNY     58  44  60 N10       30.31R
COLUMBUS       SUNNY     55  46  71 NW6       30.34R
ALBION         SUNNY     55  44  66 N3        30.35R
OMAHA EPPLEY   MOSUNNY   60  46  59 N3        30.30R
OFFUTT AFB     MOSUNNY   60  46  59 NW6       30.30R
MILLARD        MOSUNNY   63  46  55 NW6       30.31R
LINCOLN        MOSUNNY   60  44  55 CALM      30.34R
NEBRASKA CITY  MOSUNNY   59  47  64 W3        30.32R
BEATRICE       PTSUNNY   57  51  80 W3        30.34R
FALLS CITY     SUNNY     59  49  69 NW6       30.30R

...NORTHERN KANSAS...

CITY           SKY/WX    TMP DP  RH WIND       PRES   REMARKS
GOODLAND       MOSUNNY   56  55  97 SE8       30.31S
HILL CITY      MOSUNNY   60  55  83 E7        30.31F
NORTON         CLOUDY    54  45  71 NE9       30.34
PHILLIPSBURG   PTSUNNY   59  46  63 E6        30.35R
SMITH CENTER   SUNNY     57  45  62 NE15      30.34R
HAYS           CLOUDY    60  54  80 NE9       30.31R
RUSSELL        CLOUDY    60  54  80 E8        30.29S
CONCORDIA      CLOUDY    58  49  72 NE7       30.32R
SALINA         CLOUDY    67  58  72 S3        30.30R
TOPEKA         SUNNY     66  55  67 NW6       30.29R



USA.gov is the U.S. government's official web portal to all federal, state and local government web resources and services.